Regional Weather Roundup
Issued by NWS

Home | Current Version | Previous Version | Graphics & Text | Print | Product List | Glossary On
Versions: 1 2 3 4 5 6 7 8 9 10 11 12 13 14 15 16 17 18 19 20 21 22 23 24 25 26 27 28 29 30 31 32 33 34 35 36 37 38 39 40 41 42 43 44 45 46 47 48 49 50
000
ASUS43 KLMK 241510
RWRKY
KENTUCKY REGIONAL WEATHER ROUNDUP
NATIONAL WEATHER SERVICE LOUISVILLE KY
1100 AM EDT MON JUL 24 2017

NOTE "FAIR" INDICATES FEW OR NO CLOUDS BELOW 12,000 FEET
WITH NO SIGNIFICANT WEATHER AND/OR OBSTRUCTIONS TO VISIBILITY.

KYZ001>023-026-027-061>063-070>075-241600-
WESTERN AND SOUTH CENTRAL KENTUCKY

CITY           SKY/WX    TMP DP  RH WIND       PRES   REMARKS
PADUCAH        PTSUNNY   80  72  76 SW5       29.95R
HENDERSON      CLOUDY    82  74  76 SW5       29.94S
OWENSBORO      PTSUNNY   82  76  81 SW7       29.94S
HOPKINSVILLE   CLOUDY    82  74  77 W3        29.96S
BOWLING GREEN  CLOUDY    82  74  76 CALM      29.96S
GLASGOW        PTSUNNY   82  73  72 SW7       29.97S
$$

KYZ024-025-028>034-038-045-046-053-241600-
NORTH CENTRAL KENTUCKY

CITY           SKY/WX    TMP DP  RH WIND       PRES   REMARKS
LOUISVILLE/SDF MOSUNNY   85  72  65 NW7       29.93R HX  91
LOUISVILLE/LOU MOSUNNY   84  74  71 VRB7      29.93S HX  91
FORT KNOX      CLOUDY    83  72  69 W9        29.93S
$$

KYZ035>037-039>044-047>052-055>060-089>105-241600-
NORTHEAST KENTUCKY

CITY           SKY/WX    TMP DP  RH WIND       PRES   REMARKS
LEXINGTON      CLOUDY    82  71  69 W12       29.95S
COVINGTON      MOSUNNY   80  72  76 NW7       29.93S
FRANKFORT      CLOUDY    82  71  69 W5        29.94R
$$

KYZ054-064>069-076>088-106>120-241600-
SOUTHEAST KENTUCKY

CITY           SKY/WX    TMP DP  RH WIND       PRES   REMARKS
JACKSON        CLOUDY    79  72  79 CALM      29.97F
LONDON         MOSUNNY   81  70  69 W6        29.99S
SOMERSET       CLOUDY    79  68  69 CALM      29.98S
MIDDLESBORO    MOSUNNY   76  71  87 CALM      30.00F
MONTICELLO     MOSUNNY   80  73  79 W10       30.00S
$$





USA.gov is the U.S. government's official web portal to all federal, state and local government web resources and services.